Location: Kerentrech
(47.7567°N, 3.3595°W)
Time: 11:45:38
(UTC+00:00)

STARLINK-1069 - Pass Details

Date: 17 February 2020
Orbit: 375 x 384 km, 53.0° (Epoch: 09 April)

Event Time Altitude Azimuth Distance (km) Brightness Sun altitude
Exits shadow 06:41:35 - 239° (WSW) 1,953 6.0 -6.6°
Reaches altitude 10° 06:42:59 10° 239° (WSW) 1,366 5.2 -6.4°
Maximum altitude 06:46:02 83° 151° (SSE) 378 2.9 -5.9°
Drops below altitude 10° 06:49:07 10° 63° (ENE) 1,377 6.5 -5.4°
Sets 06:51:09 0° 63° (ENE) 2,231 7.6 -5.0°
